Date,TemperatureHighF,TemperatureAvgF,TemperatureLowF,DewpointHighF,DewpointAvgF,DewpointLowF,HumidityHigh,HumidityAvg,HumidityLow,PressureMaxIn,PressureMinIn,WindSpeedMaxMPH,WindSpeedAvgMPH,GustSpeedMaxMPH,PrecipitationSumIn
2013-1-1,34,29,22,31,26,13,95,85,67,0.00,40.00,5,4,14,0.01
2013-1-2,30,21,17,16,12,10,78,69,54,0.00,40.00,5,4,15,0.05
2013-1-3,34,22,13,19,14,10,88,70,44,0.00,40.00,5,3,10,0.16
2013-1-4,37,28,24,27,20,16,84,72,50,0.00,40.00,6,4,12,0.07
2013-1-5,37,28,23,24,19,16,83,70,52,0.00,40.00,8,5,17,0.07
2013-1-6,40,33,28,28,24,19,80,69,56,0.00,40.00,8,4,15,0.06
2013-1-7,40,32,28,31,27,23,89,80,63,0.00,40.00,10,4,15,0.01
2013-1-8,46,35,29,29,24,22,78,65,46,0.00,40.00,12,7,21,0.00
2013-1-9,42,38,36,36,29,24,91,70,58,0.00,40.00,11,6,24,0.00
2013-1-10,44,37,32,28,25,23,75,62,49,0.00,40.00,7,4,14,0.00
2013-1-11,38,36,33,38,29,22,100,78,55,0.00,40.00,12,9,22,0.32
2013-1-12,51,42,36,51,42,36,100,99,93,0.00,40.00,7,4,14,0.09
2013-1-13,48,46,43,48,46,43,100,100,100,0.00,40.00,14,9,23,0.01
2013-1-14,51,44,32,51,40,27,100,89,61,0.00,40.00,10,5,22,0.10
2013-1-15,32,30,27,32,27,25,100,91,83,0.00,40.00,7,5,11,0.07
2013-1-16,32,29,27,32,29,27,100,100,100,0.00,40.00,8,4,15,0.02
2013-1-17,36,31,28,32,28,25,100,91,71,0.00,40.00,4,3,12,0.08
2013-1-18,30,24,19,26,10,2,92,56,38,0.00,40.00,13,6,21,0.09
2013-1-19,46,36,23,25,19,8,79,51,35,0.00,40.00,16,13,26,0.17
2013-1-20,47,36,19,29,19,9,64,51,35,0.00,40.00,13,8,25,0.01
2013-1-21,25,19,14,22,11,5,100,71,60,0.00,40.00,10,4,16,0.00
2013-1-22,15,9,3,5,-4,-9,65,55,44,0.00,40.00,6,4,16,0.00
2013-1-23,17,6,1,1,-4,-7,71,61,42,0.00,40.00,5,3,16,0.00
2013-1-24,21,12,4,9,1,-4,94,62,36,0.00,40.00,7,4,21,0.00
2013-1-25,13,10,6,10,2,-5,96,72,49,0.00,40.00,7,5,15,0.00
2013-1-26,24,15,9,18,11,8,96,84,65,0.00,40.00,6,4,11,0.07
2013-1-27,32,21,11,16,11,9,93,68,43,0.00,40.00,6,3,11,0.07
2013-1-28,38,28,24,38,26,13,100,94,62,0.00,40.00,13,8,21,0.14
2013-1-29,51,46,38,51,46,38,100,100,100,0.00,40.00,13,7,21,0.15
2013-1-30,59,52,48,59,52,48,100,100,100,0.00,40.00,18,11,37,1.03
2013-1-31,51,29,20,51,22,11,100,76,57,0.00,40.00,15,7,26,1.32
2013-2-1,26,19,11,17,9,1,94,67,47,0.00,40.00,7,5,16,0.02
2013-2-2,17,13,7,17,7,0,100,78,61,0.00,40.00,10,6,17,0.00
2013-2-3,26,20,16,24,20,10,100,97,78,0.00,40.00,5,4,14,0.01
2013-2-4,27,19,13,22,12,6,100,74,51,0.00,40.00,7,4,14,0.03
2013-2-5,30,26,22,30,26,22,100,100,97,0.00,40.00,8,4,12,0.03
2013-2-6,35,26,21,27,22,11,100,84,62,0.00,40.00,6,3,9,0.01
2013-2-7,31,25,21,20,12,8,81,57,49,0.00,40.00,12,8,22,0.01
2013-2-8,34,29,23,34,28,20,100,97,79,0.00,40.00,12,8,23,0.01
2013-2-9,30,22,16,23,14,10,100,73,54,0.00,40.00,11,9,27,0.09
2013-2-10,37,28,19,14,10,7,66,49,34,0.00,40.00,12,8,24,0.05
2013-2-11,42,35,29,42,32,12,100,92,46,0.00,40.00,14,10,25,0.10
2013-2-12,38,33,28,33,24,21,100,72,55,0.00,40.00,7,5,21,0.02
2013-2-13,38,30,24,30,24,22,100,80,61,0.00,40.00,8,4,15,0.00
2013-2-14,41,33,26,33,28,24,100,81,57,0.00,40.00,10,4,17,0.05
2013-2-15,45,37,30,32,27,22,100,69,46,0.00,40.00,14,5,24,0.01
2013-2-16,30,27,22,30,20,9,100,78,54,0.00,40.00,9,5,18,0.09
2013-2-17,28,19,13,15,6,-1,75,58,42,0.00,40.00,10,7,26,0.03
2013-2-18,34,21,11,10,6,1,74,53,31,0.00,40.00,11,6,20,0.00
2013-2-19,34,30,26,34,23,6,100,78,36,0.00,40.00,15,9,29,0.11
2013-2-20,29,21,16,21,12,6,100,67,50,0.00,40.00,7,5,17,0.01
2013-2-21,31,22,16,17,12,7,75,66,52,0.00,40.00,11,6,19,0.00
2013-2-22,28,23,17,26,19,12,100,85,70,0.00,40.00,12,8,21,0.00
2013-2-23,39,33,26,39,33,26,100,100,100,0.00,40.00,11,6,19,0.01
2013-2-24,35,31,24,35,27,17,100,88,67,0.00,40.00,7,4,17,0.01
2013-2-25,40,30,22,25,20,17,83,67,47,0.00,40.00,9,5,15,0.01
2013-2-26,35,32,29,33,20,-100,100,75,66,0.00,40.00,16,10,35,0.24
2013-2-27,39,36,32,39,36,32,100,99,92,0.00,40.00,14,5,31,0.73
2013-2-28,38,34,30,36,32,28,100,93,71,0.00,40.00,4,3,11,0.02
2013-3-1,36,32,29,31,27,20,100,83,69,0.00,40.00,7,4,17,0.02
2013-3-2,32,27,24,25,19,16,100,73,55,0.00,40.00,9,6,16,0.00
2013-3-3,31,25,21,25,19,16,100,78,59,0.00,40.00,8,5,20,0.00
2013-3-4,31,24,21,18,16,12,78,69,59,0.00,40.00,6,5,16,0.00
2013-3-5,39,30,22,24,21,17,92,72,50,0.00,40.00,9,6,17,0.00
2013-3-6,37,33,30,33,28,23,100,82,64,0.00,40.00,13,11,30,0.02
2013-3-7,43,34,30,26,22,18,75,62,43,0.00,40.00,12,9,27,0.01
2013-3-8,39,32,26,23,20,18,79,63,50,0.00,40.00,14,11,28,0.00
2013-3-9,53,39,28,23,19,13,71,47,27,0.00,40.00,15,8,23,0.00
2013-3-10,56,47,40,26,17,10,50,31,21,0.00,40.00,14,10,25,0.00
2013-3-11,49,42,36,48,38,26,100,86,50,0.00,40.00,15,12,32,0.02
2013-3-12,50,44,34,50,44,32,100,99,89,0.00,40.00,15,8,39,0.74
2013-3-13,43,33,24,33,26,20,98,80,48,0.00,40.00,5,4,17,0.01
2013-3-14,39,29,22,22,14,8,100,57,33,0.00,40.00,8,6,19,0.00
2013-3-15,45,33,21,28,19,8,74,57,42,0.00,40.00,7,4,15,0.00
2013-3-16,39,30,27,30,26,20,100,86,62,0.00,40.00,7,5,15,0.00
2013-3-17,34,28,25,27,22,15,100,78,45,0.00,40.00,8,5,15,0.30
2013-3-18,28,25,22,28,17,10,100,73,56,0.00,40.00,12,8,26,0.01
2013-3-19,47,36,28,45,28,14,100,77,39,0.00,40.00,11,6,24,0.42
2013-3-20,40,31,23,19,16,14,68,55,39,0.00,40.00,7,5,18,0.07
2013-3-21,33,26,20,18,13,7,75,58,40,0.00,40.00,7,4,14,0.00
2013-3-22,33,26,20,25,20,12,100,78,60,0.00,40.00,5,4,14,0.00
2013-3-23,42,31,23,25,20,18,85,64,46,0.00,40.00,6,4,14,0.00
2013-3-24,40,32,24,20,16,14,72,53,36,0.00,40.00,8,4,16,0.00
2013-3-25,35,31,28,33,28,17,100,89,48,0.00,40.00,9,6,19,0.21
2013-3-26,46,34,27,38,30,24,100,88,48,0.00,40.00,6,3,17,0.11
2013-3-27,43,35,30,31,28,25,100,78,53,0.00,40.00,5,4,19,0.01
2013-3-28,41,38,36,25,23,22,59,54,49,0.00,40.00,5,4,14,0.00
2013-3-29,50,40,31,34,28,20,93,64,40,0.00,40.00,6,4,17,0.00
2013-3-30,55,42,32,27,19,10,68,43,18,0.00,40.00,5,3,11,0.00
2013-3-31,44,42,39,43,31,-100,100,74,28,0.00,40.00,13,7,26,0.27
2013-4-1,49,40,29,46,32,7,100,77,32,0.00,40.00,6,5,18,0.07
2013-4-2,43,30,22,15,11,7,66,45,27,0.00,40.00,6,4,16,0.01
2013-4-3,42,31,24,16,10,5,59,42,26,0.00,40.00,7,4,17,0.00
2013-4-4,46,34,21,15,11,8,60,41,24,0.00,40.00,10,6,19,0.00
2013-4-5,59,44,32,23,16,7,54,33,16,0.00,40.00,8,6,20,0.00
2013-4-6,50,38,26,17,12,6,63,37,18,0.00,40.00,10,7,19,0.00
2013-4-7,61,48,36,40,27,13,66,45,32,0.00,40.00,15,12,27,0.00
2013-4-8,72,62,51,44,42,38,71,49,33,0.00,40.00,10,6,22,0.00
2013-4-9,81,70,58,52,47,42,66,46,25,0.00,40.00,10,5,22,0.00
2013-4-10,83,70,59,64,53,49,95,57,37,0.00,40.00,11,6,34,0.27
2013-4-11,67,58,48,63,56,48,100,94,75,0.00,40.00,14,6,22,0.32
2013-4-12,48,43,40,48,43,40,100,100,100,0.00,40.00,20,10,39,0.41
2013-4-13,57,46,37,44,35,29,100,70,41,0.00,40.00,8,4,13,0.08
2013-4-14,62,48,36,33,28,24,79,49,30,0.00,40.00,6,4,14,0.00
2013-4-15,57,49,42,45,36,27,82,61,41,0.00,40.00,13,10,24,0.00
2013-4-16,66,54,46,58,52,42,100,91,70,0.00,40.00,13,10,27,0.00
2013-4-17,64,56,47,59,43,30,100,69,29,0.00,40.00,10,6,17,0.18
2013-4-18,57,54,51,57,46,29,100,78,35,0.00,40.00,15,13,30,0.01
2013-4-19,66,58,44,65,58,44,100,100,98,0.00,40.00,15,11,31,0.93
2013-4-20,53,43,35,44,30,19,100,62,35,0.00,40.00,6,4,14,0.81
2013-4-21,49,38,29,22,18,14,59,46,29,0.00,40.00,11,7,22,0.01
2013-4-22,52,43,34,31,26,20,87,53,38,0.00,40.00,9,7,21,0.00
2013-4-23,57,44,36,43,36,25,100,74,45,0.00,40.00,9,6,25,0.00
2013-4-24,69,52,41,59,48,41,100,89,53,0.00,40.00,13,9,28,0.25
2013-4-25,58,46,36,47,30,21,100,58,28,0.00,40.00,7,5,20,0.25
2013-4-26,58,48,38,35,26,16,77,46,22,0.00,40.00,8,5,15,0.00
2013-4-27,66,54,44,32,26,16,42,33,26,0.00,40.00,7,5,15,0.00
2013-4-28,63,55,49,42,33,-100,70,46,33,0.00,40.00,13,8,23,0.00
2013-4-29,53,49,45,53,44,33,100,85,55,0.00,40.00,10,9,22,0.19
2013-4-30,63,57,50,55,47,35,100,70,52,0.00,40.00,9,7,19,0.14
2013-5-1,66,56,44,37,27,20,57,35,20,0.00,40.00,9,7,18,0.02
2013-5-2,68,57,43,45,38,35,92,53,32,0.00,40.00,10,6,18,0.00
2013-5-3,64,55,48,42,37,31,76,52,37,0.00,40.00,12,7,22,0.00
2013-5-4,66,54,40,45,39,33,100,62,34,0.00,40.00,10,6,18,0.00
2013-5-5,64,52,39,43,38,33,100,65,32,0.00,40.00,8,6,17,0.00
2013-5-6,66,52,38,53,46,34,100,81,55,0.00,40.00,8,6,16,0.00
2013-5-7,68,57,51,62,54,50,100,92,52,0.00,40.00,10,9,21,0.07
2013-5-8,66,57,51,61,55,51,100,96,68,0.00,40.00,11,5,23,0.64
2013-5-9,61,54,49,61,54,49,100,100,96,0.00,40.00,5,3,11,0.27
2013-5-10,71,60,54,67,53,-100,100,82,46,0.00,40.00,9,4,16,0.49
2013-5-11,63,58,52,63,58,52,100,100,99,0.00,40.00,11,6,20,0.86
2013-5-12,56,49,40,53,35,-100,100,66,35,0.00,40.00,7,5,17,0.04
2013-5-13,50,41,34,31,26,20,85,56,34,0.00,40.00,7,4,14,0.00
2013-5-14,56,44,32,45,26,21,100,53,30,0.00,40.00,6,4,13,0.03
2013-5-15,68,55,45,61,49,37,100,80,67,0.00,40.00,11,8,31,0.10
2013-5-16,81,58,60,68,25,-100,100,65,29,0.00,40.00,7,4,12,0.01
2013-5-17,69,60,54,45,29,-100,58,43,32,0.00,40.00,11,6,24,0.01
2013-5-18,63,58,53,55,46,36,100,66,42,0.00,40.00,13,8,23,0.00
2013-5-19,59,56,53,59,56,53,100,100,100,0.00,40.00,9,8,19,0.03
2013-5-20,75,64,57,71,63,57,100,97,71,0.00,40.00,9,6,19,0.03
2013-5-21,83,73,65,75,68,65,100,86,58,0.00,40.00,9,6,16,0.01
2013-5-22,83,73,63,73,66,60,100,82,52,0.00,40.00,10,6,23,0.06
2013-5-23,71,65,58,71,65,58,100,100,93,0.00,40.00,11,6,18,0.87
2013-5-24,58,48,40,58,46,37,100,94,75,0.00,40.00,13,9,26,0.90
2013-5-25,59,48,38,38,33,26,91,60,33,0.00,40.00,14,10,26,0.02
2013-5-26,65,53,39,39,33,27,95,51,30,0.00,40.00,11,7,20,0.00
2013-5-27,66,56,42,43,36,27,64,49,35,0.00,40.00,6,3,12,0.00
2013-5-28,61,56,52,61,52,40,100,87,51,0.00,40.00,10,6,16,0.27
2013-5-29,81,70,60,72,64,58,100,83,53,0.00,40.00,10,7,18,0.01
2013-5-30,86,75,62,68,64,59,100,70,47,0.00,40.00,6,4,11,0.00
2013-5-31,85,77,69,70,64,56,97,65,40,0.00,40.00,9,6,16,0.00
2013-6-1,84,76,67,69,64,59,97,67,54,0.00,40.00,9,6,17,0.00
2013-6-2,80,72,68,71,64,-100,100,81,54,0.00,40.00,11,8,19,0.00
2013-6-3,73,68,60,69,61,49,100,81,58,0.00,40.00,9,5,15,0.00
2013-6-4,71,59,48,49,42,36,70,55,38,0.00,40.00,10,5,18,0.00
2013-6-5,72,63,52,46,41,32,66,45,35,0.00,40.00,8,5,16,0.00
2013-6-6,63,58,54,59,54,46,100,87,54,0.00,40.00,14,9,28,0.39
2013-6-7,62,60,58,62,60,58,100,100,100,0.00,40.00,12,8,23,0.37
2013-6-8,68,61,54,66,60,54,100,98,82,0.00,40.00,11,3,16,0.03
2013-6-9,77,66,53,66,58,53,100,78,52,0.00,40.00,6,3,14,0.01
2013-6-10,68,65,61,68,65,61,100,100,98,0.00,40.00,10,8,20,2.46
2013-6-11,74,66,60,74,66,60,100,98,77,0.00,40.00,7,5,17,2.12
2013-6-12,77,68,60,69,64,60,100,90,65,0.00,40.00,6,4,14,0.01
2013-6-13,73,65,55,73,64,55,100,98,86,0.00,40.00,14,8,24,1.04
2013-6-14,72,61,52,62,55,52,100,84,55,0.00,40.00,12,7,24,0.17
2013-6-15,75,65,56,64,56,50,100,76,49,0.00,40.00,6,4,12,0.01
2013-6-16,72,65,57,70,58,44,100,78,52,0.00,40.00,11,6,22,0.00
2013-6-17,81,70,60,74,64,51,100,83,47,0.00,40.00,8,3,11,0.00
2013-6-18,75,69,62,69,63,51,97,81,64,0.00,40.00,9,4,16,0.00
2013-6-19,72,62,55,61,52,44,100,72,42,0.00,40.00,10,6,21,0.00
2013-6-20,75,65,55,65,55,44,89,69,58,0.00,40.00,8,5,15,0.00
2013-6-22,80,76,70,69,65,63,98,70,60,0.00,40.00,8,6,16,0.00
2013-6-23,81,73,65,74,67,62,100,83,53,0.00,40.00,9,6,15,0.00
2013-6-24,87,76,66,71,66,58,100,72,51,0.00,40.00,6,4,13,0.00
2013-6-25,86,74,63,74,69,58,100,86,56,0.00,40.00,12,4,27,0.60
2013-6-26,82,70,63,71,66,63,100,89,66,0.00,40.00,6,3,10,0.35
2013-6-27,78,70,65,74,68,65,100,95,72,0.00,40.00,8,4,14,1.59
2013-6-28,78,68,62,74,67,62,100,96,70,0.00,40.00,8,4,16,1.01
2013-6-29,78,69,60,71,64,58,100,87,55,0.00,40.00,7,4,14,0.14
2013-6-30,81,72,63,77,70,63,100,94,72,0.00,40.00,9,5,15,0.01
2013-7-1,74,70,67,74,70,67,100,100,100,0.00,40.00,10,6,17,0.32
2013-7-2,78,72,69,78,72,69,100,99,91,0.00,40.00,11,8,20,0.07
2013-7-3,77,72,68,77,71,68,100,99,91,0.00,40.00,11,8,19,0.05
2013-7-4,82,75,69,78,73,69,100,93,71,0.00,40.00,8,6,16,0.01
2013-7-5,83,76,70,78,73,70,100,89,69,0.00,40.00,10,7,18,0.00
2013-7-6,88,76,68,78,72,67,100,86,59,0.00,40.00,9,4,16,0.00
2013-7-7,87,75,64,75,70,60,100,86,59,0.00,40.00,10,5,18,0.17
2013-7-8,79,68,64,75,67,62,100,97,68,0.00,40.00,5,3,11,0.31
2013-7-9,78,70,64,77,70,64,100,98,83,0.00,40.00,9,4,17,0.23
2013-7-10,84,72,69,76,67,-100,100,90,71,0.00,40.00,9,6,17,0.00
2013-7-11,79,70,65,71,65,59,100,85,56,0.00,40.00,7,5,14,0.00
2013-7-12,71,67,64,70,64,55,100,89,67,0.00,40.00,8,6,16,0.15
2013-7-13,77,69,64,75,69,64,100,99,87,0.00,40.00,9,6,16,0.49
2013-7-14,85,76,70,77,71,69,100,86,61,0.00,40.00,9,6,16,0.01
2013-7-15,89,78,67,77,72,67,100,86,54,0.00,40.00,6,3,11,0.00
2013-7-16,88,82,73,73,66,63,100,62,51,0.00,40.00,7,4,14,0.00
2013-7-17,89,79,71,74,67,62,97,68,46,0.00,40.00,7,4,13,0.00
2013-7-18,91,82,73,78,72,61,100,73,49,0.00,40.00,10,4,17,0.00
2013-7-19,91,80,72,77,71,62,100,78,56,0.00,40.00,9,4,17,0.00
2013-7-20,88,76,70,76,69,-100,100,82,54,0.00,40.00,8,5,16,0.00
2013-7-21,82,74,67,72,67,62,100,82,53,0.00,40.00,5,3,12,0.00
2013-7-22,81,72,67,76,71,66,100,97,76,0.00,40.00,9,4,15,0.30
2013-7-23,81,72,66,78,69,66,100,92,62,0.00,40.00,8,3,28,0.24
2013-7-24,75,67,58,69,60,50,100,79,51,0.00,40.00,9,6,28,0.01
2013-7-25,71,60,49,60,54,48,100,81,63,0.00,40.00,9,6,18,0.00
2013-7-26,78,67,56,60,55,52,100,71,44,0.00,40.00,6,4,15,0.00
2013-7-27,75,68,62,73,64,53,100,88,68,0.00,40.00,10,6,21,0.63
2013-7-28,78,69,64,72,66,63,100,94,61,0.00,40.00,9,5,19,0.51
2013-7-29,76,66,56,64,56,52,100,74,46,0.00,40.00,5,3,11,0.00
2013-7-30,75,63,53,59,56,53,100,79,50,0.00,40.00,4,2,12,0.00
2013-7-31,76,67,58,66,60,54,98,78,58,0.00,40.00,9,4,15,0.00
2013-8-1,78,68,63,72,67,63,100,96,78,0.00,40.00,8,5,16,0.12
2013-8-2,76,67,58,68,60,53,100,79,54,0.00,40.00,6,3,12,0.04
2013-8-3,74,66,61,70,62,53,100,90,59,0.00,40.00,8,4,15,0.44
2013-8-4,73,64,55,61,56,52,100,77,50,0.00,40.00,9,5,19,0.08
2013-8-5,71,62,55,55,51,47,99,68,46,0.00,40.00,7,4,11,0.00
2013-8-6,70,63,58,64,56,47,100,80,60,0.00,40.00,8,6,18,0.02
2013-8-7,69,64,60,69,64,60,100,100,100,0.00,40.00,9,6,20,1.03
2013-8-8,78,70,64,77,70,64,100,98,83,0.00,40.00,9,7,19,1.28
2013-8-9,78,72,69,78,72,69,100,100,99,0.00,40.00,9,5,18,0.58
2013-8-10,80,70,63,69,64,60,100,83,60,0.00,40.00,7,4,14,0.01
2013-8-11,78,68,62,68,59,51,100,74,53,0.00,40.00,7,4,13,0.00
2013-8-12,79,71,66,70,64,57,100,80,52,0.00,40.00,6,4,11,0.42
2013-8-13,79,68,62,72,63,-100,100,87,68,0.00,40.00,8,5,20,0.46
2013-8-14,68,59,50,54,49,44,87,70,55,0.00,40.00,9,7,17,0.04
2013-8-15,71,56,49,53,37,-100,92,61,42,0.00,40.00,8,4,15,0.00
2013-8-16,74,62,53,57,46,-100,93,62,48,0.00,40.00,5,3,12,0.00
2013-8-17,76,65,54,58,53,49,100,67,45,0.00,40.00,5,4,14,0.00
2013-8-18,67,61,56,67,57,-100,100,91,75,0.00,40.00,5,2,10,0.05
2013-8-19,72,60,56,68,53,-100,100,94,77,0.00,40.00,6,3,10,0.01
2013-8-20,81,68,62,72,61,-100,100,84,53,0.00,40.00,4,3,12,0.00
2013-8-21,83,72,61,70,62,56,94,73,51,0.00,40.00,7,3,12,0.00
2013-8-22,80,72,65,77,69,63,100,92,68,0.00,40.00,10,4,17,0.24
2013-8-23,74,67,63,68,62,50,100,88,59,0.00,40.00,8,5,15,0.12
2013-8-24,74,65,56,62,54,49,100,70,47,0.00,40.00,8,5,15,0.00
2013-8-25,76,67,58,60,52,-100,94,61,49,0.00,40.00,9,5,15,0.00
2013-8-26,83,71,61,66,62,54,100,74,55,0.00,40.00,9,5,16,0.00
2013-8-27,80,71,66,72,68,66,100,93,65,0.00,40.00,6,5,13,0.03
2013-8-28,75,70,67,74,70,67,100,99,96,0.00,40.00,6,4,12,0.24
2013-8-29,80,70,63,72,67,63,100,93,63,0.00,40.00,5,3,10,0.04
2013-8-30,80,72,66,80,69,66,100,92,68,0.00,40.00,10,5,16,0.03
2013-8-31,79,73,68,77,71,68,100,94,74,0.00,40.00,10,6,19,0.01
2013-9-1,81,72,68,77,70,-100,100,94,74,0.00,40.00,7,4,13,0.60
2013-9-2,82,72,64,75,69,64,100,92,68,0.00,40.00,10,4,19,0.71
2013-9-3,75,66,58,68,60,52,100,83,56,0.00,40.00,8,5,15,0.35
2013-9-4,77,64,52,61,56,52,100,80,48,0.00,40.00,5,3,12,0.00
2013-9-5,71,64,56,63,52,41,100,70,38,0.00,40.00,12,6,19,0.00
2013-9-6,67,55,45,45,40,37,76,59,37,0.00,40.00,12,5,19,0.00
2013-9-7,73,66,51,55,50,37,75,56,45,0.00,40.00,7,4,10,0.00
2013-9-8,72,63,55,67,54,-100,100,76,50,0.00,40.00,12,6,19,0.02
2013-9-9,65,58,48,63,49,37,100,72,50,0.00,40.00,9,7,15,0.01
2013-9-10,84,74,63,72,68,63,100,84,65,0.00,40.00,10,8,19,0.00
2013-9-11,87,77,70,78,72,67,100,85,60,0.00,40.00,9,4,16,0.00
2013-9-12,79,69,64,78,69,62,100,98,86,0.00,40.00,10,4,16,0.32
2013-9-13,65,60,51,64,54,45,100,83,51,0.00,40.00,10,7,20,0.05
2013-9-14,57,50,44,50,46,43,100,86,66,0.00,40.00,9,6,17,0.00
2013-9-15,66,55,45,53,44,-100,100,74,55,0.00,40.00,10,5,15,0.00
2013-9-16,65,58,49,60,53,46,100,83,63,0.00,40.00,12,6,23,0.13
2013-9-17,63,50,39,46,40,36,92,71,45,0.00,40.00,12,6,23,0.01
2013-9-18,50,48,45,44,40,38,95,75,66,0.00,40.00,5,5,11,0.00
2013-9-19,73,62,50,57,51,40,87,67,55,0.00,40.00,7,4,12,0.00
2013-9-20,73,64,55,61,57,54,100,78,56,0.00,40.00,9,6,16,0.00
2013-9-21,65,59,56,64,59,55,100,98,81,0.00,40.00,11,8,22,0.61
2013-9-22,60,54,51,57,47,-100,100,81,54,0.00,40.00,11,6,19,0.50
2013-9-23,59,51,45,44,40,38,79,67,56,0.00,40.00,11,7,29,0.01
2013-9-24,67,53,41,48,43,40,100,72,45,0.00,40.00,10,6,17,0.00
2013-9-25,67,58,47,47,42,35,70,58,44,0.00,40.00,9,4,15,0.00
2013-9-26,69,61,53,55,49,43,77,65,52,0.00,40.00,6,4,11,0.02
2013-9-27,69,60,54,57,51,44,100,76,46,0.00,40.00,7,4,13,0.02
2013-9-28,66,57,53,57,52,48,100,83,55,0.00,40.00,8,4,14,0.00
2013-9-29,65,56,47,53,48,-100,100,79,56,0.00,40.00,8,4,14,0.00
2013-9-30,72,61,51,56,51,48,100,73,46,0.00,40.00,7,4,10,0.00
2013-10-1,61,61,60,55,54,49,82,79,64,0.00,40.00,7,2,10,0.00
2013-10-2,81,67,56,63,58,53,100,76,48,0.00,40.00,5,3,11,0.00
2013-10-3,77,68,60,62,58,51,91,74,54,0.00,40.00,6,4,12,0.00
2013-10-4,80,71,64,68,65,61,100,82,60,0.00,40.00,6,3,10,0.18
2013-10-5,80,69,62,70,66,62,100,89,59,0.00,40.00,7,3,12,0.34
2013-10-6,75,68,64,71,68,64,100,97,84,0.00,40.00,10,8,19,0.18
2013-10-7,66,60,48,66,59,43,100,97,76,0.00,40.00,13,8,29,0.87
2013-10-8,60,52,47,47,44,40,93,74,52,0.00,40.00,9,5,17,0.01
2013-10-9,56,51,47,42,39,34,76,63,47,0.00,40.00,9,6,17,0.00
2013-10-10,52,50,47,51,48,41,100,93,76,0.00,40.00,13,8,24,1.65
2013-10-11,58,54,50,58,54,50,100,100,100,0.00,40.00,10,8,24,3.61
2013-10-12,69,60,54,58,46,37,100,66,35,0.00,40.00,11,7,20,0.14
2013-10-13,64,56,52,54,47,-100,97,76,56,0.00,40.00,13,7,25,0.00
2013-10-14,65,54,47,52,49,45,100,85,53,0.00,40.00,10,5,20,0.00
2013-10-15,67,58,52,53,49,41,100,75,44,0.00,40.00,8,4,14,0.00
2013-10-16,59,56,52,59,53,40,100,90,53,0.00,40.00,8,7,15,0.00
2013-10-17,66,60,53,62,59,53,100,95,74,0.00,40.00,11,6,24,0.25
2013-10-18,59,50,43,53,44,37,100,82,50,0.00,40.00,7,4,15,0.04
2013-10-19,56,49,43,50,44,37,100,83,60,0.00,40.00,10,6,18,0.16
2013-10-20,56,45,36,45,35,-100,100,73,44,0.00,40.00,6,4,15,0.17
2013-10-21,60,51,41,40,35,32,72,55,39,0.00,40.00,11,7,19,0.00
2013-10-22,58,49,39,48,38,26,90,69,36,0.00,40.00,11,6,18,0.00
2013-10-23,46,40,35,38,30,24,100,69,52,0.00,40.00,6,4,11,0.00
2013-10-24,45,36,31,37,29,23,100,78,51,0.00,40.00,6,4,17,0.00
2013-10-25,48,37,31,38,31,27,100,80,55,0.00,40.00,6,4,11,0.00
2013-10-26,49,39,30,30,27,23,92,65,36,0.00,40.00,11,6,27,0.00
2013-10-27,51,42,35,35,28,-100,87,60,42,0.00,40.00,6,4,22,0.00
2013-10-28,56,45,35,34,27,-100,67,53,38,0.00,40.00,5,3,10,0.00
2013-10-29,56,46,37,38,34,32,83,65,47,0.00,40.00,8,4,12,0.00
2013-10-30,62,50,44,53,46,33,100,88,59,0.00,40.00,9,6,17,0.00
2013-10-31,58,54,50,58,54,50,100,100,100,0.00,40.00,14,10,29,0.09
2013-11-1,67,59,52,61,51,39,100,80,43,0.00,40.00,19,9,37,0.81
2013-11-2,58,50,42,45,40,36,98,69,55,0.00,40.00,5,3,10,0.05
2013-11-3,44,37,28,43,27,-100,100,71,41,0.00,40.00,12,9,22,0.00
2013-11-4,40,32,24,17,14,9,65,49,29,0.00,40.00,9,6,20,0.00
2013-11-5,49,41,33,43,32,13,94,71,42,0.00,40.00,10,6,16,0.00
2013-11-6,59,50,44,54,48,43,100,93,67,0.00,40.00,15,10,27,0.00
2013-11-7,54,47,34,54,44,23,100,91,64,0.00,40.00,16,7,28,0.60
2013-11-8,43,36,30,33,26,20,95,70,52,0.00,40.00,6,4,15,0.01
2013-11-9,44,36,27,26,22,-100,85,61,46,0.00,40.00,12,6,21,0.00
2013-11-10,47,43,39,33,26,23,64,53,41,0.00,40.00,9,5,17,0.00
2013-11-11,46,40,32,32,27,25,85,60,45,0.00,40.00,11,6,20,0.00
2013-11-12,45,31,25,31,19,6,100,64,39,0.00,40.00,13,7,25,0.00
2013-11-13,34,27,22,18,15,9,78,62,48,0.00,40.00,8,5,29,0.00
2013-11-14,51,36,24,16,13,7,70,44,18,0.00,40.00,9,5,16,0.00
2013-11-15,51,49,47,17,16,15,29,27,25,0.00,40.00,8,6,13,0.00
2013-11-16,56,46,40,46,37,-100,100,75,50,0.00,40.00,11,6,20,0.03
2013-11-17,55,50,45,55,50,45,100,100,100,0.00,40.00,16,10,31,0.04
2013-11-18,58,50,39,56,36,22,100,63,34,0.00,40.00,19,6,38,0.22
2013-11-19,40,35,29,25,21,17,65,58,48,0.00,40.00,11,6,21,0.01
2013-11-20,43,31,25,21,14,5,72,52,25,0.00,40.00,14,7,23,0.01
2013-11-21,41,36,29,36,25,5,81,65,31,0.00,40.00,9,7,17,0.00
2013-11-22,51,45,40,47,42,36,99,91,81,0.00,40.00,9,5,19,0.04
2013-11-23,45,32,19,43,20,-100,91,63,43,0.00,40.00,9,5,18,0.01
2013-11-24,26,19,13,8,0,-6,72,45,26,0.00,40.00,9,6,18,0.00
2013-11-25,27,20,12,9,6,3,78,56,36,0.00,40.00,9,5,18,0.00
2013-11-26,37,28,25,37,21,6,100,79,41,0.00,40.00,17,7,30,0.92
2013-11-27,37,30,22,37,28,14,100,91,69,0.00,40.00,17,6,31,1.82
2013-11-28,30,23,19,19,15,12,84,71,62,0.00,40.00,7,4,12,0.01
2013-11-29,32,24,20,20,15,11,81,68,56,0.00,40.00,7,4,13,0.01
2013-11-30,30,23,17,22,12,-100,78,64,46,0.00,40.00,9,7,19,0.01
2013-12-1,36,30,25,24,22,19,86,71,57,0.00,40.00,8,4,14,0.00
2013-12-2,45,38,34,30,27,23,76,65,56,0.00,40.00,6,2,9,0.00
2013-12-3,46,39,36,34,31,28,88,72,59,0.00,40.00,5,2,9,0.00
2013-12-4,51,46,44,43,40,36,97,82,68,0.00,40.00,11,8,21,0.00
2013-12-5,54,49,44,54,49,43,100,100,97,0.00,40.00,12,8,18,0.11
2013-12-6,55,39,29,55,39,29,100,99,92,0.00,40.00,15,8,25,0.83
2013-12-7,32,26,20,29,23,-100,99,92,82,0.00,40.00,9,4,15,0.42
2013-12-8,23,20,17,22,16,12,95,86,75,0.00,40.00,8,5,13,0.06
2013-12-9,32,28,23,32,28,22,100,98,95,0.00,40.00,6,4,13,0.09
2013-12-10,30,24,18,28,22,11,99,89,75,0.00,40.00,5,3,9,0.02
2013-12-11,32,21,13,17,13,9,86,71,49,0.00,40.00,7,3,11,0.09
2013-12-12,25,18,12,18,6,-1,93,62,44,0.00,40.00,7,4,11,0.01
2013-12-13,34,23,14,16,10,2,67,58,43,0.00,40.00,5,4,11,0.04
2013-12-14,27,24,22,26,17,-100,97,78,58,0.00,40.00,16,9,31,0.01
2013-12-15,32,26,22,31,24,19,98,94,85,0.00,40.00,6,4,18,0.01
2013-12-16,26,18,11,20,9,4,85,68,55,0.00,40.00,7,3,14,0.03
2013-12-17,24,20,17,23,18,7,95,89,61,0.00,40.00,14,6,22,0.01
2013-12-18,33,24,19,23,19,15,93,79,58,0.00,40.00,5,3,10,0.04
2013-12-19,46,35,20,28,21,16,87,60,42,0.00,40.00,9,6,20,0.19
2013-12-20,50,48,45,29,27,25,48,44,40,0.00,40.00,9,8,23,0.01
2013-12-21,53,49,51,46,34,-100,77,64,61,0.00,40.00,11,8,19,0.00
2013-12-22,62,58,56,60,56,54,99,93,86,0.00,40.00,15,8,30,0.07
2013-12-23,56,45,28,55,42,20,100,89,72,0.00,40.00,7,5,14,0.27
2013-12-24,33,24,16,24,16,6,90,71,60,0.00,40.00,6,4,14,0.01
2013-12-25,21,16,11,11,6,3,78,64,53,0.00,40.00,10,6,18,0.00
2013-12-26,35,24,19,29,18,10,93,78,67,0.00,40.00,10,6,21,0.06
2013-12-27,39,27,18,22,17,12,83,67,48,0.00,40.00,5,3,15,0.02
2013-12-28,51,41,31,26,20,-100,64,46,37,0.00,40.00,6,5,17,0.00
2013-12-29,43,38,34,40,34,21,100,87,41,0.00,40.00,8,4,17,0.93
2013-12-30,37,29,18,37,23,9,100,79,59,0.00,40.00,6,4,12,0.02
2013-12-31,29,20,15,24,12,7,94,73,61,0.00,40.00,8,4,15,0.01
2014-1-1,29,24,15,21,16,9,79,69,60,0.00,40.00,10,4,15,0.00
2014-1-2,27,23,17,25,20,15,96,88,73,0.00,40.00,11,6,18,0.00